Theta_e
313 312 313 313 313 316 318 320 321 320 322 323 320 319 317 317 317 317 320 318 317 316 315 316 316 316 316 317 317 317 317 319 320 320 321 321 320 319 319 318 318 317 320 325 328 330 330 331 331 331 330 331 331 331 332 332 333 333 333 332 331 331 331 330 330 329 327 325 322 320 318 318 318 318 319 318 318 317 319 324 327 329 332 332 332 333 333 333 331 329 326 325 324 323 323 323 322
312 313 314 313 316 321 321 319 325 326 325 320 317 318 316 315 317 320 323 320 318 316 316 316 317 317 317 317 317 318 318 318 318 319 319 319 319 319 319 318 318 318 319 324 328 329 330 330 331 331 331 331 331 331 331 331 330 330 331 330 330 330 329 329 329 329 326 324 321 319 318 319 319 319 320 319 319 318 320 324 326 328 330 330 330 331 334 334 332 330 327 325 325 325 326 326 325
313 314 315 317 320 321 323 320 323 328 325 318 317 321 317 315 321 323 320 317 316 316 317 317 317 318 317 318 318 318 319 318 319 319 319 318 318 318 319 318 318 318 318 322 326 329 329 330 330 330 330 331 330 330 330 330 330 330 331 330 329 329 328 329 328 328 326 323 321 319 319 319 319 321 321 321 320 319 320 322 323 326 328 328 329 331 334 335 333 331 328 325 324 325 327 328 328
316 316 317 320 320 320 331 331 327 329 323 319 318 321 321 319 322 318 315 315 316 316 317 317 317 318 317 319 318 317 318 319 319 319 318 317 317 316 317 318 318 318 318 320 324 327 329 329 329 329 330 330 330 330 330 330 331 330 331 331 330 329 328 327 328 328 326 323 321 320 319 319 320 322 322 321 321 321 320 320 320 323 327 327 328 330 334 334 333 331 326 322 321 321 322 323 325
318 318 318 319 321 319 329 328 326 328 321 322 318 317 324 323 320 313 314 317 316 317 317 317 318 317 317 318 318 318 318 319 319 319 318 317 316 316 316 317 317 318 318 319 321 325 328 329 329 330 330 330 330 330 330 330 330 331 331 330 330 328 327 327 327 327 326 323 321 320 319 319 321 322 322 323 324 323 321 320 321 322 325 328 329 329 332 333 333 332 325 321 320 319 319 319 318
318 319 319 319 320 316 322 322 321 324 320 322 318 316 320 317 316 312 313 317 317 318 318 317 317 317 317 317 318 318 318 319 318 318 318 316 316 315 316 316 316 318 319 318 319 323 326 328 329 329 330 330 331 330 330 330 330 330 330 330 329 328 326 327 328 328 327 324 321 320 319 319 321 322 323 325 326 325 322 321 322 322 323 326 330 329 329 332 332 332 328 324 323 322 322 320 316
318 318 318 319 319 317 326 327 323 323 317 316 316 319 317 312 311 311 314 317 317 317 317 318 317 317 317 317 318 318 318 318 318 318 318 316 315 315 315 315 316 317 318 319 318 320 323 325 327 328 328 329 330 330 329 329 329 329 329 329 328 327 326 327 328 328 327 324 322 320 319 320 321 322 325 327 326 326 323 320 322 323 324 327 330 329 328 329 330 331 331 328 327 325 324 319 316
319 318 317 324 326 324 331 327 322 322 316 310 312 316 314 312 311 311 315 316 317 316 317 318 317 317 317 316 317 318 318 318 318 318 318 317 315 315 315 315 315 316 316 318 318 319 320 323 325 326 327 328 329 328 329 329 329 329 328 329 327 326 326 326 328 328 326 325 323 320 319 320 322 326 328 328 327 327 325 321 324 326 326 328 330 330 329 329 328 327 326 324 322 320 318 316 314
318 318 316 324 330 328 330 323 319 319 318 315 313 314 313 313 313 312 315 315 316 315 316 317 317 317 316 315 317 318 318 318 318 318 318 316 315 314 315 315 315 315 316 317 319 319 319 320 323 325 326 327 328 328 328 329 329 329 328 327 327 326 325 326 327 327 325 324 323 321 321 321 325 329 329 328 327 328 327 323 325 329 328 328 329 329 329 327 323 319 315 313 312 311 312 313 312
317 318 315 322 329 326 323 320 319 319 319 317 312 314 314 313 314 313 314 314 314 314 315 316 317 317 316 316 317 317 317 317 317 317 318 316 315 315 315 315 315 315 315 316 318 319 319 319 321 323 325 326 328 328 329 329 330 332 330 327 326 325 325 325 327 327 325 324 323 322 323 325 327 329 329 329 327 326 328 325 323 326 327 326 326 325 323 320 317 313 310 308 308 309 310 311 310
317 316 316 325 328 322 320 320 322 324 322 316 312 314 313 313 314 314 314 313 314 314 314 316 316 316 316 316 316 316 316 316 315 316 317 316 315 315 315 315 315 315 315 315 316 318 319 319 320 321 323 325 327 328 329 329 330 332 331 328 327 326 325 325 326 326 326 325 324 324 325 327 328 328 329 328 327 326 328 328 326 324 323 322 321 320 318 317 316 312 308 307 309 309 309 310 309
317 318 326 333 325 319 320 321 324 328 328 320 315 314 313 313 314 314 314 313 314 314 314 315 316 316 315 315 316 316 315 315 315 315 315 316 316 315 315 315 316 315 315 315 315 316 318 319 319 320 321 323 326 327 329 329 330 331 330 328 327 327 326 325 325 326 327 326 325 324 325 327 328 328 328 327 327 326 327 330 330 326 323 321 320 320 321 321 316 310 307 307 308 309 309 309 308
317 318 330 327 317 320 320 319 321 325 326 318 314 314 314 313 314 315 314 314 314 314 315 315 316 316 315 315 315 315 315 315 315 315 315 315 316 316 316 315 315 316 316 315 315 315 315 317 318 319 320 321 324 326 328 328 329 330 330 329 328 328 327 326 326 327 327 327 326 325 326 327 328 327 326 326 326 325 326 330 332 330 328 325 323 322 324 323 315 309 307 306 307 308 308 308 306
317 316 324 321 313 321 320 318 320 321 319 316 314 313 315 314 314 315 314 315 314 314 316 315 316 315 315 315 315 315 315 314 314 314 314 315 315 315 316 316 315 315 315 315 315 315 315 315 316 318 319 320 322 324 327 328 329 329 330 330 329 328 328 327 327 328 328 328 327 326 327 327 327 327 326 326 326 325 326 329 331 332 331 328 326 324 325 323 315 310 308 305 306 307 307 306 304
316 314 321 322 317 319 318 318 322 322 317 315 315 313 315 315 314 315 314 315 315 315 315 315 315 315 315 315 315 315 314 314 314 314 314 314 314 316 316 316 316 315 315 315 316 316 315 315 315 316 317 318 320 322 324 326 328 329 329 330 330 329 328 328 328 328 328 328 327 327 328 327 326 326 326 326 325 326 325 327 330 331 332 331 329 327 327 325 316 311 310 305 304 305 305 305 303
315 313 320 322 317 316 315 317 320 321 317 313 314 313 315 314 314 315 314 314 315 315 315 315 315 315 315 314 314 314 314 314 314 314 314 314 314 315 316 316 316 316 315 315 315 315 315 316 315 315 315 316 317 319 321 323 326 328 328 329 331 330 329 329 328 328 328 328 327 327 327 327 326 326 327 327 326 326 325 325 328 329 330 330 329 328 327 325 317 312 311 306 304 304 304 303 303
313 318 326 320 315 317 315 319 319 319 319 314 313 314 314 315 314 314 314 314 315 315 315 315 315 315 315 314 314 313 313 314 314 314 314 314 314 315 316 316 316 316 316 315 315 315 315 316 315 315 315 315 316 317 318 321 323 325 326 328 330 330 329 330 329 328 328 328 328 327 327 327 327 326 326 327 327 326 326 326 327 327 327 327 327 326 326 325 318 313 311 307 304 303 303 303 302
317 327 326 315 316 318 316 321 317 315 318 314 314 314 313 315 315 314 315 315 314 314 314 314 315 314 314 313 313 313 314 314 314 314 314 314 314 314 315 315 316 316 316 316 315 315 315 316 316 316 315 315 316 316 317 318 321 323 325 326 328 329 329 329 329 329 328 328 328 327 326 327 328 328 326 326 328 328 327 326 327 327 326 326 326 326 326 325 320 314 311 308 305 303 303 302 302
319 324 319 318 324 317 312 316 313 313 315 313 314 313 313 314 314 314 315 314 314 313 314 314 314 314 313 313 313 313 313 314 314 314 314 314 314 314 314 314 315 315 316 316 316 315 316 316 316 316 316 316 316 316 317 318 319 321 323 324 325 329 331 330 328 328 329 329 328 327 327 326 327 328 328 326 328 330 328 327 327 326 325 325 327 328 326 324 320 315 312 309 307 305 303 302 302
315 318 321 326 321 313 311 313 313 314 314 313 314 313 313 314 313 313 313 313 312 312 313 313 313 313 313 313 313 313 313 313 313 314 314 314 314 314 314 314 314 314 315 315 316 316 316 316 316 316 316 316 317 317 318 318 319 320 322 324 325 327 327 328 329 329 331 332 329 328 329 327 326 326 327 326 326 328 327 326 326 325 326 326 327 327 326 324 321 318 313 310 310 308 304 302 302
314 317 324 321 311 313 315 313 314 314 313 314 313 312 313 313 312 312 312 313 313 312 312 312 312 312 312 313 313 313 313 313 313 313 313 313 313 313 313 314 313 314 314 314 315 315 315 315 316 316 316 316 317 317 318 319 319 320 322 325 328 331 330 325 327 329 329 330 328 328 330 328 328 326 326 327 327 327 325 325 326 325 325 327 328 327 326 324 323 320 314 312 313 312 308 304 302
315 316 317 314 310 315 316 314 315 314 313 313 312 313 313 312 311 311 312 313 313 311 310 311 311 312 312 312 312 312 313 313 313 313 313 313 313 313 313 313 313 314 314 314 314 314 315 315 315 315 316 316 316 317 318 318 319 319 321 323 327 331 333 326 325 328 328 328 327 326 328 329 329 327 326 328 328 327 323 323 323 324 324 326 326 327 327 325 323 321 315 314 316 316 313 308 304
317 316 312 313 313 315 316 314 314 313 313 312 312 312 311 311 311 311 311 311 311 310 310 310 310 312 311 311 312 312 313 313 314 313 314 314 313 314 314 314 313 313 313 314 313 314 313 314 314 315 315 316 316 317 317 318 318 319 320 322 323 326 328 325 328 334 333 333 331 326 329 330 327 324 325 328 330 327 323 324 325 324 324 324 326 327 327 325 325 323 318 315 318 320 318 313 308
317 318 313 313 313 313 314 313 313 312 312 312 312 311 311 312 312 311 310 309 309 309 309 310 310 311 311 311 312 313 313 313 313 313 313 313 313 313 313 313 313 314 313 313 314 313 314 314 314 314 315 315 316 316 316 317 318 319 320 321 323 327 327 324 327 331 333 333 329 326 329 332 329 329 327 326 328 326 323 327 330 328 323 322 327 328 325 324 326 325 322 318 319 320 320 317 314
317 318 313 312 313 313 313 312 313 313 312 313 311 310 311 311 311 310 309 308 308 308 309 310 310 311 311 312 312 312 312 313 313 313 313 312 312 312 312 313 313 313 313 313 314 314 314 313 314 314 315 315 316 317 316 317 318 319 321 321 323 326 328 330 328 327 330 333 331 328 327 331 333 333 328 323 326 325 323 325 325 325 323 324 326 324 324 326 326 325 323 320 319 320 319 319 317
314 315 312 312 312 312 313 313 313 313 313 312 311 311 311 310 310 310 308 307 308 308 309 310 310 311 312 311 311 312 311 312 312 312 312 312 312 312 312 312 312 313 313 313 313 314 314 314 314 314 314 316 316 317 317 317 319 320 322 323 323 325 328 334 334 331 330 331 333 332 328 329 330 329 326 322 324 324 325 327 324 322 324 326 326 323 324 326 324 322 321 320 321 320 319 319 319
312 311 311 312 312 312 312 313 312 312 312 311 311 312 310 309 311 311 307 307 308 309 310 310 311 311 312 311 311 312 311 312 311 311 311 311 312 312 312 312 312 313 313 313 313 314 315 314 315 314 315 316 316 317 317 318 320 322 326 325 324 326 327 329 331 332 330 327 329 330 329 329 329 329 329 327 326 325 327 330 327 324 323 322 321 321 323 324 323 322 321 321 322 320 319 319 318
311 311 312 312 311 312 312 311 311 311 312 311 310 310 309 310 311 309 307 307 308 309 310 310 311 311 311 311 311 311 311 311 310 310 311 311 312 311 312 312 312 313 313 313 314 315 316 315 315 315 316 317 317 317 316 318 320 323 328 326 326 328 327 329 331 329 327 327 329 328 328 329 329 328 329 330 330 328 327 327 327 327 325 322 320 321 324 325 325 324 323 323 321 319 319 319 317
312 311 314 315 313 315 312 308 309 310 312 311 310 313 315 312 309 307 307 308 309 310 311 310 310 310 310 310 310 310 310 310 310 310 311 310 311 311 311 312 312 312 313 313 314 315 316 316 316 316 316 317 317 317 318 321 321 325 329 326 329 329 325 328 329 326 325 327 330 329 329 330 329 329 328 328 329 328 325 325 327 327 324 323 325 325 326 326 325 324 323 322 321 320 320 318 317
313 310 312 316 317 320 312 307 310 310 311 310 311 318 321 312 306 307 309 308 309 310 310 309 309 309 309 309 309 309 309 309 309 310 310 310 310 311 311 312 312 313 313 313 313 314 315 316 317 316 317 317 318 318 319 322 322 326 328 325 327 327 324 325 324 323 324 324 326 327 328 329 329 329 329 328 328 328 326 324 325 324 323 325 327 326 325 325 324 323 322 322 321 320 319 318 317
315 311 315 318 316 323 317 307 310 312 311 310 311 319 321 312 306 308 309 308 309 309 308 307 307 307 307 308 308 308 308 308 309 309 309 309 310 311 311 312 312 313 313 313 313 314 314 315 316 317 318 317 319 319 320 322 323 325 328 325 326 325 324 326 323 323 324 324 326 326 326 327 327 327 328 328 327 329 328 326 325 324 325 326 325 325 325 324 323 324 323 322 322 321 319 318 318
319 314 322 322 315 324 321 307 307 313 311 309 312 319 319 311 306 308 309 308 309 308 306 305 306 306 306 306 306 306 306 307 307 308 309 309 309 310 310 311 312 313 313 314 314 316 316 317 318 318 319 319 319 320 321 322 323 326 327 326 329 327 325 327 327 326 326 327 328 327 325 326 327 327 328 327 326 327 328 327 327 327 326 325 323 324 325 324 323 323 322 322 322 321 320 319 318
322 316 323 325 317 319 318 310 306 308 309 309 312 317 319 311 304 307 308 307 309 307 305 304 305 305 305 305 305 305 306 306 307 308 308 309 309 310 310 311 311 312 313 314 315 316 317 318 319 319 320 321 321 322 323 323 323 324 325 324 326 325 324 327 327 326 326 326 326 326 326 326 327 327 328 328 326 325 326 325 325 327 326 325 325 324 324 324 323 322 322 322 321 320 320 319 319
324 316 317 321 317 315 317 316 309 307 310 312 312 313 316 312 304 306 308 306 308 306 303 304 303 304 304 304 304 304 305 306 307 307 308 308 309 309 310 310 311 311 312 313 314 316 317 318 319 320 321 321 321 322 323 322 323 323 323 323 323 323 322 323 324 324 324 324 324 324 324 325 325 325 326 327 326 325 325 324 323 325 324 324 325 324 323 323 323 323 323 322 321 320 320 320 320
328 320 318 320 316 314 316 317 312 310 313 315 315 314 315 314 306 304 305 305 306 304 302 302 302 303 303 303 303 304 305 305 306 307 307 308 308 309 309 309 310 310 311 312 314 315 316 316 317 318 319 320 320 322 322 321 323 323 322 321 321 323 322 322 323 323 322 323 323 322 322 322 323 323 323 324 324 324 324 323 323 323 322 322 322 323 323 322 322 322 322 321 321 321 321 321 321
325 324 323 322 319 316 316 316 311 309 313 315 315 315 315 314 311 304 303 304 304 302 301 302 301 301 302 302 303 303 304 305 305 306 307 307 308 308 308 309 309 310 310 311 313 314 315 316 315 315 317 318 319 320 321 320 321 321 320 320 321 322 321 322 323 321 321 322 321 321 321 320 321 321 321 322 321 322 322 322 322 322 322 322 321 321 322 321 321 320 320 320 320 320 320 319 319
318 319 320 320 319 317 316 316 310 306 312 316 313 314 314 313 313 304 301 303 302 301 301 300 300 300 300 301 301 302 303 303 304 305 306 307 308 308 308 308 308 308 309 310 311 313 315 316 316 316 317 318 317 317 318 318 319 319 320 320 319 319 319 320 320 320 320 320 320 320 320 320 319 319 319 320 320 320 320 320 320 321 320 320 321 320 320 319 318 318 318 318 318 318 318 317 317
314 315 316 317 316 316 314 313 311 307 311 315 312 312 314 314 311 303 301 303 301 300 300 299 299 299 299 300 300 301 301 302 303 305 306 307 307 306 306 306 307 307 308 308 309 310 313 314 315 317 316 315 314 314 315 315 316 317 318 318 317 317 318 318 318 318 318 317 318 318 318 318 318 318 317 317 318 319 318 318 318 319 319 319 319 318 318 317 317 317 317 316 316 316 316 316 315
313 313 313 314 314 315 315 312 311 309 310 316 314 312 315 313 305 301 299 300 299 299 299 298 299 299 299 299 300 300 301 302 304 305 306 306 305 306 306 306 306 306 306 307 307 308 309 310 311 312 312 311 310 311 310 311 313 313 314 315 315 315 315 315 315 315 314 315 315 315 315 316 315 315 315 314 314 314 314 314 314 314 314 314 315 315 315 315 315 316 315 315 315 314 313 313 313
312 313 312 315 314 315 319 315 312 311 309 313 314 311 313 310 303 301 299 298 298 298 298 298 298 299 298 299 299 300 302 303 304 305 305 305 305 305 305 306 306 306 306 306 306 306 307 307 307 308 308 308 308 308 308 308 309 310 310 311 312 312 312 311 310 310 310 310 309 310 310 310 310 310 310 309 308 308 308 308 308 308 307 307 308 309 310 310 311 311 311 311 311 311 310 311 311
314 314 312 314 314 315 318 315 312 313 311 310 311 314 318 313 309 306 300 298 298 297 298 298 297 298 298 299 300 300 301 302 303 304 304 304 305 305 305 305 305 305 306 306 306 306 306 306 306 306 306 306 306 306 307 307 307 307 307 308 308 308 308 307 307 306 305 305 305 305 305 305 305 305 305 306 305 305 305 305 305 304 304 304 304 305 305 305 305 305 305 306 306 306 306 307 307
317 317 314 313 315 316 316 314 313 317 317 312 310 318 327 321 315 309 301 300 300 298 297 297 297 297 298 299 300 300 301 302 303 304 304 304 304 305 305 305 305 305 305 305 305 305 305 305 305 305 305 305 306 306 306 306 306 306 306 306 306 306 305 305 305 304 304 304 304 303 303 303 303 304 304 304 304 304 304 304 303 303 303 303 303 303 303 303 303 303 303 303 303 303 303 303 304
318 318 316 312 312 314 315 315 316 320 320 312 308 316 325 325 320 309 301 302 301 298 297 296 297 297 298 299 299 300 300 301 303 303 304 304 304 304 304 304 304 304 304 304 305 305 305 305 304 304 305 304 304 305 305 305 305 305 305 305 305 305 305 304 303 303 303 303 303 302 302 302 302 302 303 303 303 302 302 302 302 302 302 302 302 302 302 302 301 301 301 302 302 301 301 301 301
321 316 315 315 313 315 316 316 317 320 318 313 312 315 318 321 318 307 302 304 302 301 300 297 297 297 298 299 299 299 300 301 302 303 303 303 303 303 303 303 304 303 304 303 304 304 304 304 304 303 304 303 303 304 304 304 304 304 304 304 304 304 304 303 302 302 301 301 301 301 301 301 301 300 300 301 300 300 300 299 299 299 299 299 298 298 298 298 298 298 298 299 299 300 300 300 300
320 310 311 315 314 316 317 316 316 315 313 318 319 314 315 321 318 306 302 305 305 304 303 298 297 297 298 298 298 299 299 301 302 302 303 303 302 303 303 303 303 303 303 303 303 303 303 303 303 303 303 303 303 303 303 303 303 303 303 303 303 303 302 301 300 300 299 299 299 299 298 298 298 297 297 297 297 297 296 296 295 295 295 295 294 294 294 294 294 294 294 294 295 295 296 297 297
311 305 309 312 312 314 314 315 316 313 313 321 321 315 316 322 322 312 307 310 311 307 303 299 297 297 298 298 298 298 299 300 301 302 302 302 302 302 302 302 303 302 302 303 302 302 303 303 303 303 303 302 302 302 302 302 302 302 302 302 302 301 300 299 299 298 297 297 297 296 295 295 295 294 294 294 294 294 294 294 293 293 293 293 292 292 292 292 292 292 292 291 291 291 292 292 293
306 309 315 314 315 316 316 316 315 314 318 320 316 314 315 318 324 320 312 314 313 308 304 300 297 297 298 298 298 298 299 300 301 301 302 302 302 302 302 302 302 302 302 302 302 302 302 302 302 302 302 301 301 301 301 301 300 300 300 300 299 299 297 297 297 296 295 294 294 294 293 293 293 293 293 293 293 293 293 293 293 292 292 292 292 292 292 291 291 291 291 290 290 291 290 290 290
307 318 319 316 318 316 316 319 316 317 323 318 310 310 312 316 325 321 313 312 308 305 305 301 297 297 298 299 298 298 299 299 300 301 301 301 302 301 301 302 302 302 302 302 302 302 302 301 301 301 301 300 300 299 299 299 299 299 298 297 297 296 295 295 295 294 293 293 293 292 292 292 292 292 292 292 292 292 292 292 292 292 291 291 291 291 291 290 290 290 290 290 290 290 290 290 290
311 319 318 319 322 319 320 320 317 319 320 312 308 311 312 315 320 316 314 312 304 300 301 300 298 298 299 299 298 298 298 299 300 301 301 301 301 301 301 301 301 301 301 302 301 301 301 301 300 300 300 299 298 298 298 298 298 297 296 295 295 294 294 294 294 293 293 293 292 292 292 292 292 292 292 292 292 291 291 291 291 291 291 291 290 290 290 290 289 289 289 289 289 289 289 289 289
312 317 318 321 324 325 327 323 316 317 315 309 308 311 313 316 316 313 311 307 299 297 299 299 299 300 300 300 298 298 298 299 300 300 301 301 301 301 301 301 301 301 301 301 301 301 300 300 299 299 299 297 297 297 296 296 296 295 294 294 293 293 293 293 293 293 292 292 292 292 292 292 292 292 291 291 291 290 290 290 290 290 290 290 290 289 289 289 289 289 288 288 288 288 288 288 288
311 315 316 320 324 327 329 325 323 322 316 310 308 312 319 320 313 306 302 298 296 297 298 299 300 300 300 299 298 298 298 298 299 299 300 301 301 301 301 301 301 301 301 301 300 300 299 299 298 298 298 296 295 295 295 295 294 293 293 292 292 292 292 292 292 292 292 292 292 291 291 291 291 291 290 290 290 290 290 289 289 289 289 289 289 289 289 288 288 288 288 288 288 288 288 287 287
311 311 314 317 321 323 319 315 317 319 317 314 311 314 320 315 306 298 296 296 295 296 297 298 299 299 299 298 297 298 298 299 299 299 300 300 300 300 300 300 301 301 300 300 300 299 298 298 297 297 296 295 294 293 293 293 293 292 292 292 292 292 292 292 292 292 292 291 291 291 291 290 290 290 290 290 290 289 289 289 289 289 288 288 288 288 288 288 288 288 288 288 288 288 288 288 287
312 310 316 316 314 319 319 310 307 310 316 316 313 316 315 310 307 301 298 299 297 295 296 297 298 298 297 297 298 298 298 299 299 300 300 300 300 300 300 300 300 300 300 299 299 298 297 296 296 295 295 294 293 292 292 292 292 292 292 292 292 292 291 291 291 291 291 290 290 290 290 290 290 290 290 290 289 289 289 289 289 289 288 288 288 288 288 288 288 288 288 288 288 288 287 287 287
314 315 317 313 310 317 321 316 313 313 317 317 313 315 315 314 315 308 301 305 304 297 295 295 296 296 296 297 298 299 299 299 299 299 299 300 300 300 300 300 300 299 299 298 298 296 295 294 293 293 293 293 292 292 292 291 291 291 291 291 291 291 291 291 291 290 290 290 290 290 289 289 289 289 289 289 289 289 289 289 289 288 288 288 288 288 288 288 288 288 288 287 287 287 287 287 287
312 313 311 312 316 319 316 317 320 318 319 320 315 312 313 314 317 313 309 311 309 300 295 295 295 295 296 298 299 299 299 298 298 299 299 300 300 300 300 299 299 299 298 297 296 295 294 293 292 292 292 292 292 291 291 291 291 291 291 291 291 291 290 290 290 290 290 289 289 289 289 289 289 289 289 288 288 288 288 288 288 288 288 288 288 288 288 288 288 288 287 287 287 287 287 287 287
308 309 308 311 317 318 317 317 318 318 320 321 317 314 316 316 315 318 316 312 308 302 297 296 295 295 297 299 299 299 299 299 299 299 300 300 300 300 300 299 299 298 297 296 295 294 293 292 292 292 292 292 292 291 291 291 291 291 291 291 290 290 290 290 290 290 290 290 289 289 289 289 289 288 288 288 288 288 288 288 288 288 288 288 287 287 287 287 287 287 287 287 287 287 287 287 287
311 312 311 313 313 314 317 315 314 318 321 322 320 317 318 316 312 315 315 310 304 302 300 297 296 296 298 299 300 300 300 299 300 300 300 300 300 300 299 298 297 296 295 294 293 293 292 292 292 292 292 292 291 291 291 291 291 291 290 290 290 290 290 290 290 290 289 289 289 289 289 288 288 288 288 288 288 288 288 287 287 287 287 287 287 287 287 287 287 286 286 286 286 286 286 286 286
312 313 313 314 313 313 316 315 312 314 317 319 319 317 317 315 308 309 310 305 301 299 298 297 296 297 298 299 300 300 301 301 301 301 301 300 300 299 299 297 296 295 294 293 293 292 292 292 292 293 292 291 291 291 291 291 290 290 290 290 290 290 290 290 289 289 289 289 289 288 288 288 288 288 288 288 288 288 288 287 287 287 287 287 287 287 286 286 286 286 286 286 286 286 286 286 286
Wind_Speed
5 4 2 2 2 2 2 2 1 2 3 2 1 0 1 2 1 2 2 1 1 2 2 2 3 5 1 1 2 3 3 3 2 2 1 4 8 7 4 1 2 1 6 12 15 18 18 17 16 15 14 13 12 12 11 10 9 9 9 8 7 6 6 5 5 3 2 2 2 3 3 4 4 4 4 4 4 3 3 4 4 3 2 1 2 3 3 2 2 3 4 4 5 4 3 3 3
4 3 2 1 1 0 1 2 2 2 4 3 1 2 1 2 1 2 3 2 1 2 2 1 4 4 3 1 1 1 2 2 1 0 2 5 6 6 4 1 1 2 6 11 14 17 18 18 17 16 14 13 12 11 10 10 9 8 7 6 5 5 5 5 5 4 3 3 3 4 4 4 3 4 4 4 4 3 3 3 4 3 2 0 1 3 2 1 1 2 3 4 4 3 3 2 2
5 3 4 2 3 3 2 3 2 1 4 3 1 3 1 1 3 4 5 2 1 3 2 0 2 3 2 1 2 1 0 1 1 2 2 5 5 5 5 1 1 2 6 9 12 15 16 17 17 17 16 15 13 12 11 10 10 9 7 6 5 4 5 5 5 5 4 4 4 4 3 3 3 3 3 4 4 3 2 2 3 2 1 0 1 2 2 1 1 1 3 4 4 4 3 2 2
6 4 5 1 2 3 3 3 2 3 3 2 1 2 2 2 4 5 4 4 4 2 1 1 0 1 1 2 2 1 2 2 2 2 2 4 5 5 5 2 1 2 4 8 10 13 15 16 16 16 16 15 14 13 12 11 11 10 8 6 6 5 6 6 6 6 5 5 5 5 3 2 2 2 3 5 5 3 1 1 2 2 2 1 2 2 2 2 2 1 2 3 4 4 4 4 4
7 6 6 1 2 2 2 3 2 3 3 3 2 2 3 4 4 5 6 5 2 2 3 3 1 1 1 1 1 1 2 3 2 1 2 4 4 5 5 3 1 2 3 6 9 11 13 14 15 15 15 15 14 13 13 12 11 10 9 8 7 6 6 6 6 7 6 7 7 6 4 3 1 1 3 5 5 5 2 1 1 3 2 2 2 3 4 1 2 2 2 2 4 5 6 7 7
8 7 6 4 4 3 3 3 3 2 3 4 2 2 4 4 5 6 8 4 2 3 3 3 2 2 1 1 2 1 2 3 2 1 2 3 3 5 5 4 2 2 3 5 7 9 11 13 13 14 14 14 14 13 13 12 11 11 9 9 8 7 6 6 5 7 7 7 8 6 5 3 2 1 3 6 6 6 3 1 1 2 3 3 3 4 5 3 1 2 3 5 6 8 9 10 10
8 6 5 4 5 4 3 3 3 2 2 3 2 3 5 5 4 5 6 3 3 4 3 3 3 2 1 3 4 2 3 4 4 3 2 2 2 4 5 5 3 2 2 4 5 8 9 11 12 13 14 14 14 13 12 11 11 10 9 9 8 7 6 6 6 7 7 8 8 7 5 3 3 2 3 6 7 6 4 2 1 3 4 5 4 5 5 5 5 5 5 7 9 10 12 13 12
8 6 3 3 3 4 3 2 2 2 0 3 3 4 5 7 4 3 3 2 3 3 2 2 2 2 1 5 4 3 5 4 5 4 2 1 1 3 4 5 4 2 1 3 5 7 8 10 11 13 13 13 14 13 12 11 11 10 10 9 8 7 6 6 6 7 7 7 8 7 5 3 3 3 4 6 6 5 4 2 1 4 5 6 5 5 5 7 9 8 8 10 11 12 12 12 10
7 5 3 3 2 3 2 1 0 2 3 3 4 5 5 5 3 2 2 1 3 3 3 1 1 3 3 6 4 4 7 6 7 5 2 1 0 2 3 5 4 3 1 2 4 6 8 9 11 12 13 14 14 13 13 12 11 10 10 9 8 7 7 6 5 6 7 7 7 6 5 3 3 3 4 5 5 5 2 0 2 4 5 5 6 6 7 9 10 10 10 11 11 10 10 9 8
7 5 3 3 3 3 2 0 0 1 3 4 5 6 4 3 3 3 1 1 2 3 4 2 1 2 3 5 4 6 8 9 10 7 3 1 0 1 2 3 3 3 2 1 3 5 7 8 10 11 13 13 14 14 13 12 11 10 10 9 8 7 7 6 6 6 7 7 7 6 5 4 4 4 5 4 4 5 3 2 3 4 4 5 7 7 8 9 10 11 11 10 9 7 7 8 7
4 5 4 4 3 2 1 2 2 2 4 5 4 3 3 2 2 2 2 2 2 3 4 3 0 2 3 3 3 6 9 11 12 10 6 3 1 1 0 1 2 2 3 1 2 4 6 7 9 10 12 13 14 15 14 13 12 11 11 10 9 8 7 7 7 7 7 7 7 6 6 5 5 5 6 5 4 5 5 4 4 5 6 7 8 8 9 10 10 12 11 10 8 7 5 5 4
2 2 3 4 2 2 2 2 2 4 5 4 1 3 5 3 1 2 3 2 5 5 3 3 2 3 2 3 3 5 8 12 12 11 8 5 3 3 3 2 2 2 3 4 2 3 4 6 8 9 11 12 14 15 15 15 13 13 12 11 10 9 8 7 8 8 7 7 7 7 6 6 6 6 7 7 6 6 6 6 5 5 7 8 10 10 11 12 12 11 10 10 8 7 4 2 1
3 2 4 3 2 2 3 1 2 3 4 1 0 4 7 3 2 3 3 3 7 5 3 4 2 2 1 3 2 2 7 14 13 11 9 6 4 5 5 5 4 3 3 3 3 2 3 5 6 8 9 11 13 15 15 15 15 14 13 12 11 10 9 8 8 8 7 7 8 7 7 7 8 7 7 7 7 6 6 7 6 6 7 9 11 12 13 13 12 10 10 10 9 7 4 1 1
4 4 4 3 0 1 3 0 1 1 0 2 2 5 6 2 3 4 2 2 4 3 5 7 3 2 2 3 3 4 11 14 13 12 9 6 4 4 5 6 6 6 4 3 3 3 4 4 6 7 8 9 12 14 15 16 15 14 13 13 12 11 10 8 8 8 8 8 8 8 8 8 8 8 8 8 7 7 7 7 8 8 8 9 10 12 13 14 12 11 11 11 10 7 4 2 1
5 4 5 3 2 0 2 1 1 4 2 2 1 6 5 2 4 6 2 1 2 5 9 8 4 3 3 3 5 10 15 14 12 10 6 3 3 2 3 5 6 7 7 5 4 4 5 5 6 6 7 7 9 12 15 16 16 15 14 14 13 12 11 10 9 9 9 9 10 9 10 9 9 8 8 8 8 8 9 8 8 10 11 10 10 11 13 14 12 10 10 11 9 7 4 2 1
5 4 4 3 1 1 2 2 1 3 2 3 1 7 5 2 4 5 3 4 7 9 9 7 5 6 7 8 9 13 14 12 10 8 4 1 1 1 2 3 5 7 8 8 6 5 5 6 7 7 8 7 7 9 12 15 16 16 15 14 14 14 13 12 11 10 11 11 11 11 11 10 10 9 9 9 9 10 10 10 9 11 13 13 12 12 12 13 11 9 9 9 8 7 4 2 1
4 3 4 3 2 2 3 4 3 3 3 4 3 6 4 1 5 6 7 8 8 9 9 9 9 9 10 10 11 14 13 11 9 7 6 3 3 3 3 3 4 6 8 10 10 9 7 7 7 8 8 8 7 7 9 13 15 16 16 15 16 16 15 14 13 12 12 12 13 13 12 11 11 11 11 10 11 12 12 11 11 12 13 14 14 14 12 12 10 8 7 7 7 6 4 2 1
3 2 3 1 2 2 4 6 6 4 1 3 6 8 3 2 6 8 8 7 9 12 13 10 7 5 5 8 11 15 13 10 8 7 7 6 4 4 4 4 5 6 7 10 11 11 10 9 8 8 9 9 9 8 8 10 12 15 15 15 15 15 14 14 14 13 13 13 14 14 13 12 12 12 12 12 12 13 14 13 13 13 14 14 14 13 12 11 9 8 6 5 6 6 4 3 2
3 3 2 1 4 3 4 6 6 3 2 4 7 7 3 3 6 8 5 9 13 13 13 9 5 5 7 11 11 11 10 9 7 5 5 5 5 5 5 6 6 7 8 9 10 12 12 11 10 10 9 10 9 9 8 8 10 12 13 14 14 14 15 15 14 13 12 14 15 14 14 14 13 13 13 13 13 14 15 14 13 13 13 13 12 13 13 11 9 8 6 4 5 6 5 4 4
2 4 2 4 5 4 5 5 5 4 4 6 6 5 5 6 5 4 3 10 11 6 8 7 8 14 15 13 10 8 8 7 6 4 3 3 3 4 4 5 6 7 8 9 10 11 12 11 11 11 11 10 10 10 9 8 8 9 11 13 14 14 16 16 14 14 13 16 16 14 15 14 14 14 14 14 14 15 16 14 13 12 12 13 12 13 14 13 11 10 7 4 5 7 6 6 6
2 3 2 4 3 1 3 3 2 3 5 6 5 5 7 5 3 3 2 5 6 3 4 5 11 18 15 11 10 8 5 3 2 2 2 1 2 3 4 4 4 5 7 8 9 11 12 12 12 12 12 12 11 10 9 8 7 8 9 11 13 14 16 16 16 16 16 17 17 16 16 15 15 14 14 15 15 16 16 14 13 11 11 12 13 13 15 16 14 12 8 5 6 8 8 7 8
2 2 2 4 4 1 2 1 2 3 4 5 5 5 5 6 6 4 3 3 4 7 9 10 12 12 9 8 7 5 5 4 3 3 3 4 4 4 5 5 5 5 5 6 8 9 11 12 12 12 12 12 11 10 9 8 7 7 7 9 13 15 17 16 13 15 16 16 15 15 16 16 16 16 14 14 16 17 15 14 14 13 13 12 13 14 17 18 16 15 11 7 7 9 9 9 9
1 1 2 2 4 4 4 4 6 6 6 6 6 7 7 8 7 3 1 2 5 10 11 9 7 4 4 4 3 3 5 6 5 4 4 5 6 6 7 7 6 6 6 7 7 8 9 10 11 13 13 12 11 10 8 7 7 6 6 7 8 11 14 13 13 15 16 16 14 14 18 17 15 15 14 14 16 17 15 14 13 13 14 15 15 14 16 19 17 18 16 11 10 11 10 9 10
2 1 2 2 4 6 7 8 9 10 11 12 10 10 9 7 6 2 3 1 3 5 3 1 1 1 1 1 1 3 5 5 5 5 6 8 9 10 10 10 10 10 9 9 9 9 9 9 10 12 13 12 11 10 8 7 6 5 5 5 6 8 10 8 10 15 15 16 15 15 18 19 18 14 13 16 18 17 14 13 13 12 14 15 16 14 16 17 16 19 19 17 14 13 13 10 10
3 2 2 1 5 7 9 11 14 15 14 14 10 11 10 6 6 2 4 1 0 2 3 3 5 5 4 3 2 3 3 4 4 5 6 8 10 10 10 10 10 11 11 10 10 9 9 9 9 11 13 13 12 11 10 8 6 5 5 4 4 5 9 9 9 11 15 16 15 16 16 18 21 16 13 16 17 16 12 12 15 15 16 15 13 14 17 16 16 19 21 21 17 15 15 12 11
3 3 2 3 7 10 12 13 14 13 13 11 7 9 7 2 2 2 5 2 3 4 5 5 4 2 3 4 5 5 4 4 4 4 6 7 7 8 8 8 9 8 9 10 10 9 6 6 8 11 13 14 14 13 11 9 7 5 4 3 2 2 8 12 11 11 14 16 15 16 15 15 18 17 13 13 15 14 11 11 12 13 15 16 15 15 18 17 17 21 22 21 18 18 17 13 12
1 1 4 7 10 12 12 13 14 13 13 10 7 7 3 3 3 2 4 2 5 5 5 5 2 1 4 5 5 6 6 6 7 6 5 6 6 7 7 8 8 8 8 8 9 9 6 3 5 9 12 15 15 14 12 10 8 5 3 3 3 2 4 9 12 12 12 14 16 15 13 13 15 17 15 13 14 12 10 12 11 11 13 15 17 16 15 16 19 21 21 18 18 19 16 13 12
2 3 6 8 10 12 12 11 11 7 7 6 5 4 2 3 3 3 4 3 5 4 3 3 1 2 3 3 4 5 6 7 8 7 6 7 7 7 8 9 10 10 10 10 10 10 9 4 1 6 10 12 13 13 12 10 8 6 4 3 2 3 5 6 8 10 10 12 13 12 12 14 15 16 16 15 14 9 8 12 12 11 11 12 14 13 12 15 18 19 17 16 17 17 15 14 11
2 4 4 8 9 8 8 4 2 1 1 2 1 2 4 3 3 5 4 3 3 3 2 1 1 2 2 2 2 3 4 6 7 8 9 10 9 9 9 10 11 11 11 12 11 10 9 7 2 3 6 8 10 11 11 10 9 8 6 6 5 6 8 8 8 8 10 12 12 12 11 12 14 14 14 12 11 9 8 10 11 11 11 10 11 12 13 14 15 15 13 13 15 15 15 14 11
2 3 2 5 7 5 4 3 2 1 1 1 2 2 4 0 2 6 3 4 4 2 2 2 3 3 2 2 2 3 4 5 6 8 9 9 9 9 9 9 10 10 10 10 9 8 8 8 5 2 4 6 8 10 11 10 10 11 9 9 9 8 7 7 6 5 8 11 11 12 10 8 8 10 10 9 10 10 10 9 10 10 9 9 10 11 12 12 12 12 11 12 13 13 14 14 12
2 1 2 2 2 5 5 4 3 1 0 2 3 1 4 3 1 8 5 3 4 1 5 5 4 4 3 3 3 3 5 6 6 7 7 8 8 8 8 8 8 9 8 8 7 7 7 6 5 4 4 6 8 9 11 11 11 12 10 8 8 8 7 6 6 5 6 9 10 11 10 8 7 7 8 8 8 10 10 9 10 10 9 9 9 8 8 9 10 9 10 11 11 12 13 14 14
2 1 3 2 1 5 7 5 2 1 1 2 5 2 4 3 1 8 6 2 3 4 7 6 5 5 4 4 4 4 5 6 6 6 6 6 7 7 7 7 8 8 8 8 8 8 7 6 6 6 5 6 8 9 9 11 12 12 12 11 9 9 7 5 6 5 4 6 7 9 10 8 8 9 8 8 8 9 9 8 8 10 10 11 10 8 8 9 8 8 9 9 9 10 12 13 14
3 0 3 3 1 3 6 4 3 2 2 3 3 2 3 2 2 8 5 3 2 7 8 7 6 6 5 5 5 5 5 5 5 6 6 6 7 7 7 7 8 8 9 8 8 7 8 8 8 8 9 9 8 8 9 10 10 10 10 10 9 9 7 6 5 4 4 4 2 3 4 4 4 7 8 9 9 9 9 7 7 8 9 10 10 10 12 11 9 9 10 10 10 11 11 12 14
3 1 2 4 3 2 3 3 4 5 3 1 3 0 5 4 4 8 6 4 3 8 9 7 7 6 6 6 6 6 5 5 6 7 7 8 8 8 7 8 8 8 8 8 8 8 8 9 9 9 11 11 10 10 9 8 9 9 8 8 8 7 6 5 3 2 4 4 3 3 3 3 3 3 5 6 4 7 9 10 9 9 10 11 11 12 12 11 11 12 12 11 12 13 13 14 15
3 2 2 3 2 3 4 4 2 5 3 2 3 2 8 6 4 10 8 5 5 9 9 7 7 6 6 6 6 7 6 7 8 8 8 7 7 7 7 7 8 7 8 8 8 8 9 9 9 10 11 13 14 13 11 10 10 10 8 6 7 8 7 5 4 2 2 2 2 3 5 6 6 5 5 6 5 3 5 6 7 7 9 11 13 13 12 12 13 14 14 13 14 15 15 15 16
6 5 4 3 3 4 4 4 3 1 2 3 5 5 9 9 2 7 7 6 8 10 8 7 7 7 7 7 7 8 8 8 9 8 7 6 6 7 8 9 9 8 8 9 9 9 10 11 10 12 14 14 15 14 13 11 10 9 8 7 8 10 8 7 6 3 2 0 1 1 3 4 4 5 5 6 7 5 4 4 4 5 7 8 9 10 11 11 10 11 12 12 12 13 14 14 15
5 4 4 4 4 5 4 4 4 0 1 4 4 4 7 8 4 5 3 5 8 8 7 8 8 7 8 8 8 8 8 9 8 7 7 7 8 10 11 11 11 11 11 11 11 12 13 13 13 15 15 12 12 12 12 11 10 9 9 9 9 10 9 6 5 4 3 3 4 3 2 3 4 4 4 5 7 7 8 7 7 8 8 9 10 9 9 10 10 10 11 11 11 12 13 14 15
4 4 3 3 4 6 5 3 4 1 2 3 1 1 7 5 2 5 3 4 6 5 6 8 7 8 8 8 9 8 9 9 8 9 10 11 12 13 14 15 15 16 17 17 16 16 16 15 15 15 12 10 11 12 10 11 11 9 9 10 8 7 7 4 2 3 3 3 3 2 3 4 6 6 6 7 8 9 9 9 10 11 11 12 13 12 11 12 13 14 14 14 15 15 15 16 17
2 3 2 3 3 3 4 2 4 2 3 3 3 2 6 2 2 5 6 5 6 5 5 7 7 8 9 9 10 10 11 11 12 13 15 16 17 18 19 21 22 22 22 22 22 21 19 18 17 16 15 15 16 15 14 13 12 9 8 9 6 4 5 4 2 2 3 4 4 4 5 6 7 8 9 10 10 10 10 10 11 12 13 13 13 14 15 16 17 17 18 19 19 18 18 19 20
3 3 3 4 3 1 3 3 3 2 1 2 1 3 4 0 1 3 5 7 8 8 7 7 7 8 10 10 11 12 14 16 17 18 19 20 21 22 23 25 25 25 26 26 26 25 24 23 22 21 21 21 21 20 20 19 17 14 12 11 8 7 8 8 6 6 5 5 4 3 3 4 5 5 6 8 10 10 11 10 11 12 12 12 12 13 15 16 17 17 19 19 19 19 19 19 20
4 5 6 5 4 6 6 2 2 2 3 0 0 4 4 1 1 1 2 5 7 6 7 8 7 8 10 11 13 15 17 19 21 22 22 23 23 24 25 26 26 27 28 28 28 28 27 26 25 24 25 25 24 23 22 21 19 18 17 16 14 14 14 12 10 11 10 9 10 10 11 10 9 9 8 9 9 10 10 10 10 10 11 11 11 11 11 12 12 13 14 15 16 16 16 16 16
3 5 10 10 8 7 5 1 3 2 3 2 1 1 4 2 2 3 2 1 2 2 4 6 6 8 10 12 15 17 19 22 23 24 24 24 25 25 26 26 26 27 27 27 27 27 26 26 25 25 25 25 25 24 22 20 20 19 18 16 15 14 15 14 15 15 14 13 14 14 14 13 12 12 12 11 11 11 11 11 11 11 11 11 11 11 10 10 10 10 11 11 12 12 13 13 13
2 5 9 10 7 6 5 4 3 1 2 2 2 2 3 5 3 2 3 2 1 0 1 4 6 8 11 14 16 18 20 23 25 26 25 25 25 25 25 25 25 26 26 26 25 25 25 25 24 23 24 24 24 23 21 19 18 17 16 15 13 12 13 16 17 16 15 15 14 13 13 14 14 13 13 13 13 13 13 13 13 13 13 13 13 12 12 12 13 13 12 12 12 12 11 12 12
3 3 5 7 7 7 6 6 4 2 2 2 2 3 2 4 3 1 3 3 1 2 2 3 7 9 11 14 16 19 21 24 26 26 25 25 25 24 24 24 24 24 24 23 23 23 22 22 21 21 21 21 21 20 18 16 15 14 12 11 11 12 13 15 15 15 15 13 12 13 13 13 13 13 13 13 13 13 13 14 14 14 13 14 14 14 14 15 14 14 14 13 13 13 13 13 13
4 2 5 6 6 6 5 6 3 1 1 3 3 2 2 4 4 1 2 2 2 5 6 6 9 11 13 15 16 18 21 24 26 26 25 25 24 23 23 22 22 22 21 20 20 20 19 18 17 16 16 17 16 15 14 13 12 10 10 9 10 12 13 14 14 14 13 11 11 12 12 12 12 12 13 13 13 13 13 13 13 13 14 14 15 15 15 14 14 14 14 14 15 15 15 15 15
4 6 7 5 5 5 4 4 3 2 1 4 5 3 2 4 4 1 1 3 5 6 5 7 12 14 14 17 18 19 21 24 26 26 25 24 23 22 21 20 20 19 18 18 17 17 16 15 13 11 12 13 12 11 10 11 10 9 9 8 9 12 13 13 12 12 12 10 10 11 12 12 11 12 12 12 12 12 12 13 12 13 14 14 14 14 14 15 15 15 15 15 15 14 15 15 15
9 7 6 6 6 4 3 2 3 3 2 5 5 3 2 2 5 3 3 3 4 6 5 6 12 16 17 18 19 20 22 24 25 25 24 23 22 21 20 19 18 17 16 15 14 14 12 11 9 8 11 11 10 10 9 10 10 9 9 9 10 12 13 11 10 11 11 10 9 11 11 11 11 11 12 11 11 12 12 12 13 13 13 14 14 15 15 16 16 16 16 15 15 15 14 14 14
7 4 4 4 3 3 3 4 3 1 4 5 3 1 2 3 4 3 3 3 2 5 7 8 13 18 21 21 21 21 23 24 25 24 24 23 22 20 19 18 16 15 14 12 12 10 9 8 6 6 9 9 8 8 7 8 9 9 10 10 11 12 12 10 9 10 10 9 10 10 10 10 10 10 11 11 12 12 13 13 13 13 14 14 14 15 15 15 16 16 16 16 16 16 16 16 16
3 4 6 4 2 2 2 2 1 3 5 3 1 1 2 5 6 4 4 4 3 3 7 14 20 24 25 24 23 23 24 24 25 24 23 22 21 20 18 17 16 14 12 11 10 8 6 6 4 4 6 7 6 6 6 6 8 9 10 10 10 10 9 8 8 9 9 9 9 9 9 9 10 10 11 12 13 13 14 14 14 14 15 15 15 15 14 15 15 15 15 16 16 16 16 17 17
4 4 5 4 2 2 1 3 2 3 3 2 2 1 1 4 5 3 5 3 3 3 6 14 23 27 28 27 25 24 25 25 25 24 23 22 20 19 17 16 15 13 11 9 8 7 5 5 3 2 4 7 6 6 6 6 7 9 9 9 9 8 7 7 8 8 9 9 9 9 10 10 11 12 13 14 14 14 14 14 15 15 14 14 14 14 14 15 15 15 15 16 16 16 16 16 16
3 3 4 4 4 4 4 4 3 3 2 2 3 1 4 4 2 2 2 3 4 4 6 12 20 25 27 27 26 25 26 26 25 25 23 22 20 19 17 16 14 12 10 8 7 6 5 5 4 3 4 7 7 7 7 6 7 9 8 8 8 7 7 7 8 8 8 8 9 10 11 11 12 13 13 14 14 14 14 14 15 15 14 14 14 14 15 15 15 16 16 16 16 16 17 17 17
2 1 4 2 4 4 2 3 5 3 1 2 2 3 4 4 1 2 3 4 3 4 7 12 19 23 25 26 27 27 27 27 27 26 24 22 21 19 18 16 14 12 10 8 7 7 6 5 5 5 5 7 7 7 7 7 7 8 8 7 7 7 6 6 7 8 8 9 10 10 11 12 12 13 13 13 14 14 15 15 15 15 15 15 15 16 16 16 17 17 18 18 18 18 19 19 20
2 2 3 4 3 6 4 1 1 3 1 3 2 3 3 0 1 2 2 2 2 2 5 13 19 22 25 27 29 29 29 29 28 26 25 23 21 20 18 16 15 13 11 9 8 8 7 6 6 6 7 8 8 7 7 7 7 7 7 6 6 6 6 6 7 7 8 8 9 10 10 11 12 12 13 14 14 15 15 16 16 16 17 17 17 17 18 18 18 19 20 20 21 21 21 22 23
5 3 5 3 2 4 4 2 2 3 2 4 1 4 3 2 2 2 1 2 5 4 5 10 16 21 25 29 32 32 31 29 28 27 25 24 22 21 19 17 15 13 12 10 9 9 9 8 7 8 8 8 8 7 7 6 6 6 5 5 5 5 5 6 7 7 8 8 9 10 10 11 12 13 13 14 15 15 16 16 17 18 18 19 20 20 20 21 21 21 22 23 23 24 24 24 25
4 3 3 3 3 1 2 2 2 1 3 4 2 2 3 4 4 3 5 9 9 6 5 8 15 22 27 32 35 33 32 31 30 29 27 25 24 22 20 18 16 15 14 12 12 11 11 11 10 10 9 9 8 7 6 6 5 4 4 4 4 4 5 6 7 8 9 9 11 12 13 14 14 15 15 16 16 16 16 17 18 18 19 20 21 22 22 23 24 24 25 26 26 27 28 28 28
3 2 1 2 2 3 2 2 3 2 2 3 2 1 3 5 6 8 12 13 11 10 8 10 17 26 32 36 38 37 35 34 33 31 29 27 25 23 21 18 17 16 15 15 14 13 12 12 12 11 10 9 8 7 6 5 4 3 3 3 3 4 6 7 8 10 11 12 14 15 15 16 16 16 17 17 17 18 18 19 19 20 20 21 22 23 24 24 25 26 27 28 28 29 30 31 31
2 2 2 1 1 2 1 1 2 3 3 2 2 4 4 4 3 8 10 8 10 13 12 12 20 29 34 38 40 40 38 37 35 33 30 28 26 24 22 20 18 18 17 16 15 14 14 14 13 12 11 10 9 7 6 5 3 2 2 2 4 6 7 9 11 13 14 15 16 16 17 18 18 19 19 19 20 20 20 20 21 21 22 22 23 24 25 26 27 27 28 29 30 31 32 33 33
4 4 5 5 3 3 2 3 1 2 2 3 2 4 5 3 2 4 4 3 8 13 13 14 23 32 36 39 41 41 41 39 36 33 31 29 27 25 23 22 21 20 19 18 18 17 16 16 15 13 12 10 9 7 6 4 3 1 2 3 5 8 10 11 13 14 15 16 17 18 19 20 21 21 22 23 23 23 23 24 24 24 24 24 25 26 26 27 28 29 30 31 32 33 34 35 36
Wind_Direction
322 324 319 271 273 263 312 356 97 26 62 94 324 337 237 232 295 287 281 294 272 305 239 239 166 157 167 172 232 247 216 187 173 84 70 330 348 356 358 41 76 107 168 179 187 185 184 185 187 187 186 185 186 188 189 192 194 199 206 216 219 226 237 245 250 249 233 198 168 153 122 113 104 96 94 96 97 95 107 112 113 105 95 74 29 25 32 38 44 53 45 42 41 41 49 57 63
351 16 37 92 37 39 238 29 95 354 50 89 272 194 276 300 310 245 236 208 171 346 343 209 178 198 265 275 279 263 222 242 254 13 22 354 352 357 5 30 78 106 158 172 186 190 187 187 189 190 192 192 193 195 197 198 202 208 214 221 223 236 244 248 249 243 225 196 169 158 144 135 128 115 101 93 90 98 119 123 121 122 125 127 329 350 6 30 49 48 42 36 31 36 44 39 40
26 40 37 61 57 71 126 44 95 74 74 92 289 235 300 304 229 238 236 238 301 342 1 206 201 218 236 327 320 142 52 316 349 21 30 9 1 2 11 24 68 112 151 164 181 192 192 191 192 193 196 199 201 203 205 205 210 216 222 230 236 255 265 261 249 240 228 206 188 176 166 156 136 108 87 71 65 67 103 137 136 139 154 259 300 315 336 24 45 21 24 23 18 17 15 6 356
32 29 14 47 91 62 76 43 123 118 109 148 334 265 258 205 238 255 282 329 329 348 44 15 139 198 245 327 315 205 346 10 68 45 38 19 13 9 16 34 69 122 147 159 174 189 196 198 197 198 200 204 208 209 211 212 215 221 227 235 245 257 269 269 253 243 234 215 204 199 197 180 138 92 60 45 43 36 44 181 167 157 167 234 259 271 301 27 29 8 23 18 13 9 359 343 320
21 14 8 49 144 58 80 72 100 94 155 180 104 269 250 218 244 278 328 352 356 37 15 7 73 352 290 297 285 202 23 48 76 30 23 23 26 24 26 40 88 126 144 156 167 182 195 203 203 204 205 207 211 213 213 216 218 222 228 234 245 252 261 266 254 249 242 228 220 214 215 208 183 69 31 25 28 26 23 277 209 177 186 216 232 250 264 337 19 349 340 337 340 345 343 333 318
12 13 25 75 96 78 105 93 95 89 190 176 123 255 262 233 236 290 333 23 81 28 0 18 44 344 325 332 308 268 17 9 358 346 4 22 37 39 42 45 74 121 148 157 163 176 190 203 208 209 209 210 213 215 214 216 218 222 227 233 241 246 255 258 249 248 246 236 231 226 226 228 245 351 20 15 16 19 12 324 224 186 199 216 217 235 251 268 328 317 299 302 311 319 321 318 311
5 3 18 76 66 46 97 109 142 138 184 183 170 241 270 286 267 300 339 63 65 22 18 24 4 353 78 357 342 356 357 343 342 318 315 7 53 53 57 55 61 91 148 164 165 174 187 200 208 213 212 212 216 217 216 217 219 222 226 231 234 239 248 250 246 247 244 237 234 232 232 237 267 303 351 0 1 5 3 350 196 189 202 220 229 239 256 274 279 277 280 290 295 299 304 304 303
3 358 15 80 38 26 88 102 176 184 220 223 247 249 271 306 307 312 353 60 17 13 30 18 355 23 24 334 337 15 13 5 356 338 307 311 67 64 67 61 61 54 119 173 174 177 186 198 206 213 215 215 218 219 220 222 224 227 227 228 229 233 243 244 244 247 245 237 234 233 231 236 260 285 315 339 346 351 2 14 180 188 206 231 241 253 274 286 284 285 288 291 291 291 293 293 295
11 9 42 80 67 34 47 45 206 239 267 256 255 257 279 313 309 306 350 7 350 360 6 11 38 21 332 329 355 37 29 28 15 4 341 287 85 60 70 64 61 49 50 181 187 189 190 197 205 212 216 217 221 223 222 224 225 229 231 229 227 232 240 242 244 247 248 242 240 238 229 230 244 265 296 321 333 337 348 350 232 212 210 237 256 272 282 287 292 305 311 309 303 295 284 282 289
15 29 84 85 74 57 26 297 256 253 255 272 270 277 296 308 298 289 317 8 348 342 356 10 174 5 333 332 23 48 44 40 30 25 11 332 159 59 67 60 56 45 30 187 194 202 201 201 206 212 217 219 222 224 225 226 224 225 232 233 229 232 237 238 242 247 248 243 242 237 229 232 245 259 281 299 314 317 303 245 242 248 249 262 274 278 282 290 306 321 325 323 320 309 285 279 286
11 35 84 86 72 105 147 196 269 281 272 298 292 318 355 329 316 293 318 14 346 327 354 17 140 352 340 336 36 66 58 41 26 24 18 351 299 257 340 29 34 26 15 358 219 212 211 209 210 213 217 219 222 225 226 228 225 221 227 233 231 233 235 234 236 242 244 241 239 234 231 240 253 263 274 282 288 294 287 258 242 255 269 276 278 282 291 303 319 328 332 333 331 329 307 287 288
23 25 62 90 107 160 172 183 261 291 304 330 5 16 8 347 16 331 331 359 338 341 4 10 353 347 340 356 61 97 43 17 7 8 9 357 322 293 294 290 294 330 351 358 331 241 225 220 217 217 220 221 222 225 226 228 228 226 229 231 231 232 233 233 233 238 238 237 238 232 230 243 256 266 271 276 279 277 274 266 249 248 259 268 274 284 298 308 321 331 338 342 338 342 343 319 303
89 145 74 96 152 162 146 170 264 311 329 318 259 355 353 335 29 357 354 359 336 353 18 352 338 333 299 331 16 138 355 352 349 348 349 354 329 299 294 281 268 269 299 341 343 299 254 239 230 225 224 225 224 225 227 228 228 229 234 234 232 232 233 235 235 237 237 234 236 231 228 241 255 264 267 270 275 270 263 265 261 257 261 267 274 283 294 304 319 334 346 348 345 349 0 24 47
89 143 93 112 93 146 153 118 269 114 278 252 278 355 355 353 44 14 22 23 344 357 347 334 311 308 308 327 350 337 336 337 335 334 337 347 335 297 284 277 263 251 255 284 319 320 292 266 251 240 233 230 230 228 228 229 229 228 232 237 238 236 237 238 237 238 236 234 237 234 232 243 255 261 263 265 269 269 262 265 267 268 269 273 278 282 290 301 317 337 349 349 346 347 355 27 73
82 113 93 112 59 31 184 155 142 127 161 236 319 357 12 91 44 9 24 61 331 320 319 313 294 297 315 329 336 330 328 327 328 329 332 344 340 289 270 270 260 250 247 253 278 308 308 292 275 264 252 241 236 235 232 231 231 229 227 232 240 242 241 239 240 240 238 237 237 238 238 243 254 257 258 262 265 266 266 267 268 268 270 274 279 283 289 299 312 335 348 346 345 343 345 8 66
68 82 79 90 106 191 179 169 145 120 199 236 320 0 31 91 17 9 353 318 303 310 311 303 289 281 298 314 319 319 317 316 317 317 312 314 278 244 254 267 259 249 243 242 247 265 289 293 289 283 275 266 254 244 239 235 233 232 228 226 234 241 241 241 242 241 241 241 237 237 240 246 253 255 254 258 261 263 265 267 266 268 271 274 278 285 289 293 306 333 345 343 342 339 338 343 4
44 60 73 67 139 201 185 179 176 145 251 271 336 4 35 8 357 357 325 309 299 305 308 303 294 289 299 310 310 308 306 304 299 291 286 270 244 229 234 260 262 253 246 242 239 242 253 268 279 283 282 280 275 263 248 241 236 235 232 227 231 239 241 241 244 244 245 244 241 239 241 249 254 256 258 260 263 264 267 272 273 272 275 279 283 287 286 287 310 334 339 339 340 335 329 317 298
32 91 80 25 173 189 178 182 191 164 287 289 325 346 14 346 339 341 326 306 307 311 314 318 313 307 308 306 304 302 302 300 287 272 273 265 249 232 233 249 252 252 248 244 242 243 245 251 261 266 272 276 277 275 262 248 240 237 235 231 231 238 244 245 246 247 250 250 248 245 243 246 248 254 260 262 264 266 270 275 277 276 277 282 285 290 288 289 316 335 330 334 337 329 315 292 274
66 110 71 255 201 207 192 183 191 182 301 288 312 329 333 319 321 337 330 303 318 322 322 338 350 342 327 315 312 305 303 297 284 268 264 258 247 236 238 241 241 243 241 243 242 245 248 249 254 253 257 264 267 270 269 259 245 237 236 234 229 230 238 243 246 245 249 257 255 252 250 248 247 250 256 260 261 264 273 279 279 278 279 278 281 287 286 292 318 333 327 329 339 329 307 279 261
85 103 87 243 217 224 219 205 212 228 279 291 311 313 304 313 307 319 312 302 315 321 320 340 335 327 329 326 324 322 314 299 291 281 272 263 257 256 257 253 245 241 238 240 239 241 245 244 246 245 246 250 256 261 264 264 255 241 234 233 232 231 236 236 238 240 240 248 252 250 252 253 252 250 254 260 260 261 271 278 278 275 275 278 280 282 283 290 310 323 320 328 347 334 309 283 261
148 124 153 212 186 222 237 216 262 271 274 283 294 299 306 320 307 288 285 307 314 329 335 330 317 319 324 322 328 345 357 333 316 316 329 354 342 335 328 317 292 264 249 247 246 244 244 242 240 239 238 237 241 250 257 265 265 250 232 226 229 234 244 241 235 237 235 242 249 247 248 254 257 256 255 258 259 260 266 272 275 274 268 272 278 280 284 291 302 310 313 332 352 339 317 294 270
147 166 186 173 155 231 297 15 340 308 289 282 281 292 303 311 311 287 248 262 294 309 311 305 307 309 314 323 338 15 48 53 46 46 43 41 20 7 350 338 325 304 283 269 264 257 253 248 240 234 233 232 231 238 248 260 266 261 242 223 219 220 236 245 239 241 244 248 255 253 251 254 259 260 254 256 262 263 270 271 271 278 270 267 272 276 288 295 301 308 312 329 346 343 325 302 281
157 259 228 196 202 242 291 309 315 307 294 285 282 291 296 305 314 311 259 249 280 298 300 298 301 297 305 337 11 42 41 38 42 39 32 19 360 351 341 330 315 302 291 283 279 268 261 254 244 233 228 226 223 223 230 243 256 264 255 236 225 222 233 239 232 237 248 251 256 258 252 253 260 266 261 255 258 264 278 272 263 279 278 272 266 271 297 303 305 308 311 323 333 336 328 308 291
133 261 277 260 246 258 288 299 301 298 289 288 291 288 289 297 300 334 35 332 293 301 301 286 204 161 193 163 54 31 19 11 12 13 7 355 349 347 343 333 321 309 299 293 286 275 264 256 247 234 224 218 212 210 213 220 233 247 254 249 235 237 245 248 231 227 238 248 258 263 255 252 250 259 273 261 256 266 276 265 258 275 282 275 264 272 300 303 301 303 306 316 322 325 323 316 302
142 226 277 272 267 278 293 294 294 294 291 293 290 277 280 286 277 325 46 44 168 152 153 128 135 141 143 135 83 54 26 11 5 360 351 347 348 347 341 331 323 312 305 303 302 295 276 261 246 231 219 208 200 197 200 202 210 222 231 237 219 219 231 250 258 237 238 245 252 260 256 253 249 254 281 274 267 275 273 262 261 269 274 267 262 276 288 286 293 300 303 309 314 314 314 318 312
187 200 278 274 281 292 295 289 289 290 290 291 279 277 291 293 238 72 56 68 132 154 166 141 144 153 72 50 44 34 19 13 358 350 345 344 344 336 331 330 330 324 320 322 323 323 305 272 240 224 212 200 195 191 192 190 195 206 211 223 199 182 210 223 240 239 242 243 241 252 250 248 254 259 277 279 273 278 279 271 273 282 278 266 264 276 275 274 291 302 302 304 308 309 310 314 314
175 268 297 279 287 298 293 284 283 283 283 279 257 275 309 126 150 88 30 71 150 167 161 144 157 15 33 23 10 1 351 352 354 355 345 333 331 331 338 342 344 350 351 346 342 347 352 321 229 216 207 199 193 189 186 182 186 189 204 224 193 195 209 209 226 236 241 239 238 253 254 247 258 261 264 271 268 274 279 267 282 306 294 273 266 270 273 277 291 301 301 301 303 307 308 309 310
9 344 306 293 311 308 295 285 280 278 281 275 235 249 7 101 125 54 20 78 153 184 148 128 87 39 35 12 352 343 337 346 352 350 350 350 353 354 356 359 360 3 5 7 7 7 11 17 202 204 203 200 194 188 180 176 177 163 187 211 142 202 212 207 228 236 234 232 232 241 245 243 253 260 263 267 261 271 282 264 275 294 293 280 260 258 276 284 290 295 296 299 301 301 302 301 307
346 14 323 306 339 328 309 326 304 216 272 306 202 278 1 60 98 49 28 107 165 208 152 123 91 73 55 37 356 348 347 349 347 348 3 14 17 17 11 11 12 11 12 15 16 13 15 28 56 179 194 199 190 180 169 169 168 151 171 182 162 198 202 202 220 223 220 225 228 228 230 233 238 246 255 262 259 271 286 267 265 271 280 285 265 263 278 284 285 287 289 299 302 300 301 299 305
316 31 41 319 349 333 324 26 359 343 259 238 91 298 309 196 93 32 32 171 202 225 119 115 111 100 82 63 14 13 11 355 358 5 15 22 24 27 25 23 20 20 22 18 18 21 24 33 41 99 162 180 177 170 164 163 159 154 171 177 173 192 184 179 191 190 198 206 220 228 231 235 232 234 243 250 248 257 270 263 251 245 259 282 279 272 273 279 281 282 289 294 298 303 304 303 309
322 359 41 0 359 287 299 353 329 16 312 199 132 241 272 214 276 16 35 168 206 172 100 103 102 96 87 70 45 25 23 19 23 28 30 31 32 34 34 32 29 29 29 23 24 33 39 48 54 80 132 160 164 164 162 158 152 151 160 160 160 179 179 175 183 190 200 201 213 226 231 238 238 231 235 239 231 240 252 254 253 244 245 264 269 267 270 277 279 282 286 285 293 302 301 304 309
19 339 313 340 133 272 307 349 2 94 83 74 122 212 286 196 235 17 45 144 177 127 103 100 92 87 83 63 56 42 40 43 44 50 48 46 45 42 41 39 38 37 36 36 38 42 49 66 80 101 123 143 157 161 161 158 155 155 160 162 165 174 176 180 196 217 231 205 205 219 227 235 238 232 237 244 232 241 247 241 259 257 242 243 245 253 268 272 274 277 277 278 289 291 291 296 297
2 93 253 273 199 279 320 354 18 50 110 43 70 217 293 188 110 25 70 132 126 115 102 95 87 74 70 59 58 59 63 69 67 70 64 60 57 50 48 46 46 44 45 49 52 55 60 71 84 99 109 114 127 139 146 151 151 157 164 166 172 181 182 184 197 231 251 229 219 236 239 252 247 235 252 258 236 244 255 239 252 259 249 249 248 250 255 257 263 272 277 280 284 284 288 291 291
315 38 235 249 220 236 307 316 1 30 92 49 21 126 267 224 99 39 69 114 99 106 97 89 82 67 62 56 58 65 73 85 82 78 71 64 60 55 53 52 54 54 54 57 59 67 74 78 84 91 100 103 101 107 120 127 130 138 145 147 152 162 176 192 208 250 259 255 284 327 316 301 301 285 290 295 258 252 260 252 253 260 264 266 265 265 264 261 260 264 269 270 273 279 283 285 285
194 178 199 250 246 228 262 266 306 13 34 351 346 301 270 256 92 50 59 97 102 102 95 89 81 70 67 60 63 69 74 84 82 79 75 71 66 61 62 62 65 65 64 70 72 77 84 85 89 95 98 99 100 103 108 113 118 124 129 142 145 141 150 162 169 202 248 273 275 292 293 279 283 296 302 317 328 304 270 261 264 271 276 275 274 279 285 282 273 268 269 267 268 271 273 274 275
172 174 159 188 231 244 239 244 258 351 20 282 270 259 269 269 331 42 56 86 95 99 95 87 81 74 75 72 73 78 83 88 86 85 83 79 77 72 72 72 73 78 82 88 91 90 89 89 91 96 95 98 105 109 108 112 118 119 121 132 126 120 125 125 118 137 180 174 86 308 305 302 304 309 303 307 319 329 328 317 310 306 304 299 291 288 289 295 296 289 290 292 289 287 287 286 284
137 138 145 187 219 262 251 249 289 77 152 261 249 244 267 271 306 9 44 89 79 84 86 81 82 81 82 84 85 87 90 89 88 92 94 89 86 83 82 84 86 92 98 102 104 101 97 97 95 95 97 102 108 109 110 111 111 112 119 122 110 99 101 105 97 101 110 78 67 72 30 14 7 353 341 328 325 327 329 331 328 325 322 313 306 306 306 312 320 317 316 318 316 313 311 309 306
121 150 189 231 218 252 254 237 311 16 182 266 39 294 270 266 334 3 31 82 57 62 87 85 88 90 90 93 94 96 96 97 102 103 102 100 97 95 94 97 98 99 100 101 100 101 103 105 103 102 104 104 98 101 111 111 107 110 117 113 103 98 98 98 95 86 62 25 13 338 320 331 334 333 335 332 327 321 318 319 318 316 315 308 305 310 314 314 314 313 313 313 314 314 313 312 311
154 152 172 254 225 256 282 289 336 20 176 253 20 321 266 269 31 22 48 78 73 80 102 98 102 102 101 104 104 110 110 112 117 113 110 107 104 104 102 100 98 97 96 96 96 98 101 101 102 103 101 95 89 88 93 94 94 99 109 109 114 131 115 99 91 72 28 353 333 302 299 305 310 312 314 320 324 322 319 315 311 310 310 307 303 302 302 302 302 300 299 299 302 304 305 306 307
193 167 170 240 210 180 271 282 326 15 111 236 336 309 275 94 52 29 60 92 93 91 104 105 112 114 111 114 115 118 118 116 116 114 111 109 106 105 101 98 96 95 94 94 94 94 94 94 95 95 93 89 86 83 81 80 80 82 87 90 94 97 84 73 69 67 57 39 35 38 25 7 354 341 333 338 344 346 345 339 332 329 328 326 319 312 308 306 305 304 302 301 301 301 302 303 304
232 203 203 226 203 202 230 266 318 360 27 22 136 319 300 207 207 304 70 101 93 91 108 107 114 121 119 124 125 123 120 117 116 114 112 109 107 103 99 98 96 95 94 92 92 91 90 90 89 89 87 85 83 81 78 77 76 76 77 78 78 80 81 80 77 76 76 72 68 64 61 56 49 45 41 32 24 18 13 10 5 0 358 355 350 346 341 334 329 325 321 319 317 315 313 310 309
272 227 211 217 212 211 217 51 30 21 352 326 88 321 294 301 246 205 185 108 73 85 113 115 125 133 137 136 132 128 123 120 118 116 114 110 106 102 99 98 96 93 91 90 89 88 87 87 86 86 85 84 82 81 80 78 77 77 77 80 83 85 88 86 79 75 72 67 66 64 62 61 57 55 55 51 47 44 39 36 33 28 25 23 23 20 16 13 7 1 357 352 346 342 336 327 323
271 242 206 207 198 181 172 140 112 126 242 297 63 161 251 312 311 189 166 137 64 298 129 144 152 148 150 145 138 134 127 122 120 117 114 110 106 103 99 97 94 92 90 89 89 87 85 84 84 83 83 83 83 82 83 79 77 81 82 84 88 81 76 76 73 71 69 67 67 67 65 63 60 57 56 54 52 49 46 44 42 38 36 36 35 32 31 30 28 24 21 16 12 7 358 349 344
235 244 157 162 169 173 172 154 159 209 235 327 8 137 199 291 290 203 148 134 92 238 225 200 178 164 158 151 144 139 131 126 123 119 116 112 108 104 101 97 95 92 91 90 88 86 84 83 82 83 83 84 85 84 85 82 78 79 77 74 75 71 69 76 78 76 75 74 73 71 68 65 62 58 57 56 54 51 47 45 42 38 35 35 33 31 32 32 30 28 25 22 20 15 11 8 2
245 203 118 134 149 156 147 136 162 238 53 300 296 146 187 263 269 338 131 166 236 224 216 209 190 177 167 160 152 143 136 130 127 123 119 115 110 107 104 100 97 95 93 90 88 85 84 82 81 81 82 83 85 84 82 81 76 72 70 65 69 76 80 83 85 85 83 79 75 73 68 63 61 57 55 53 51 49 45 42 39 34 31 30 28 27 28 27 24 22 21 19 17 14 12 12 7
180 130 93 81 75 82 95 113 125 71 82 240 245 188 190 268 275 276 139 225 234 212 202 198 191 183 174 167 159 150 142 136 131 127 123 119 116 113 109 106 103 100 97 93 91 89 85 83 80 79 81 81 82 81 75 77 78 73 75 75 78 86 90 94 96 93 87 81 75 73 68 63 59 55 51 48 45 43 39 35 31 26 24 22 19 18 16 15 14 15 15 15 13 11 9 8 6
139 117 75 62 43 43 50 59 91 73 275 244 238 213 180 262 273 230 187 224 200 170 164 183 192 188 180 174 166 157 149 141 136 131 127 125 123 120 117 115 111 106 103 99 96 94 90 86 77 72 80 80 81 82 74 78 84 81 83 87 90 96 101 104 104 97 90 83 75 69 63 58 52 47 43 38 35 33 28 24 20 17 15 10 7 6 4 4 5 5 5 4 3 3 3 2 1
123 95 92 92 10 13 26 359 46 115 251 257 267 250 166 204 260 247 215 234 179 164 168 173 189 192 185 178 171 163 154 146 141 136 134 132 130 128 126 123 119 114 111 109 105 101 98 94 78 69 85 89 89 92 85 86 94 93 95 100 101 104 109 109 103 96 89 78 68 63 57 50 43 37 33 27 24 23 18 14 11 8 5 2 1 360 359 358 357 357 355 354 354 355 353 353 352
98 95 114 113 358 15 1 303 280 221 243 274 287 181 172 228 249 233 203 211 216 201 183 178 184 187 184 180 174 167 160 152 147 144 142 140 137 136 135 131 127 123 121 120 117 115 112 110 95 77 100 109 109 114 111 109 112 111 111 113 109 108 108 102 92 85 76 66 59 50 40 35 28 22 20 16 14 13 8 4 1 359 357 356 355 354 352 351 350 350 349 348 348 348 347 348 348
164 150 139 139 111 87 264 258 271 260 250 294 296 201 179 263 267 223 186 202 229 224 198 188 186 184 181 179 176 171 165 159 155 152 149 146 145 144 143 141 138 134 132 132 132 132 133 134 134 123 124 129 133 137 136 135 130 123 120 115 108 104 94 83 75 66 58 47 37 27 20 17 12 10 9 7 6 3 358 356 354 351 349 347 345 344 343 342 342 342 342 342 342 343 343 342 341
186 173 135 146 153 160 211 216 212 238 255 306 303 244 184 206 263 259 241 293 284 247 214 194 191 188 183 180 179 176 171 166 162 159 156 154 153 153 153 151 149 146 144 145 149 153 159 160 161 169 151 145 151 152 148 145 133 124 119 110 100 90 76 66 58 50 41 31 23 17 12 8 5 4 1 359 356 352 349 347 345 343 341 339 337 335 334 333 333 333 333 333 334 334 333 332 332
222 124 111 161 184 154 152 187 174 168 264 283 240 234 220 191 216 299 310 315 293 251 217 195 194 193 188 186 185 181 176 172 168 166 163 162 161 161 161 160 160 159 157 160 167 172 180 181 179 182 171 161 160 158 151 141 130 122 115 105 94 82 68 55 45 36 27 21 14 6 2 360 357 354 350 347 343 341 339 337 336 336 334 333 332 330 330 329 328 327 327 326 325 325 325 325 324
152 128 178 219 180 118 113 204 94 87 230 255 190 222 276 284 252 302 359 317 271 250 214 197 193 191 190 191 189 185 181 177 174 171 168 167 167 167 168 169 170 170 171 175 179 182 188 193 194 190 180 172 168 162 153 138 127 120 112 102 89 76 58 42 32 24 17 11 1 354 351 348 344 340 336 334 332 330 329 328 328 328 327 327 327 327 327 326 326 325 324 323 322 322 322 322 321
125 180 207 197 123 92 108 192 15 53 236 266 205 204 222 166 223 299 39 254 243 220 202 193 189 190 193 195 192 188 185 181 178 176 175 174 174 173 174 175 177 178 181 186 187 188 188 189 192 194 190 183 175 166 157 143 131 120 108 94 74 56 38 27 20 14 10 3 351 346 343 340 338 335 332 331 329 327 325 323 322 322 322 323 323 324 324 324 324 323 323 323 322 322 321 321 320
125 189 186 115 138 161 104 161 194 196 235 279 283 225 215 194 200 199 198 218 219 199 191 193 191 192 195 197 195 191 188 187 184 181 180 180 180 180 179 179 181 184 188 191 191 191 191 191 193 195 196 193 185 175 162 148 135 120 98 76 54 33 23 14 7 3 357 350 344 341 339 338 336 334 333 331 329 328 326 324 323 323 322 322 322 322 322 322 322 322 322 321 321 321 320 320 319
61 89 103 71 145 170 154 159 170 182 216 274 297 274 238 226 201 183 197 206 193 179 187 201 198 196 196 197 195 193 192 190 188 185 184 184 185 185 184 185 188 190 191 193 193 194 196 198 200 202 204 203 194 181 167 154 137 120 93 62 35 16 8 359 353 350 345 340 338 337 336 334 333 333 332 331 330 329 328 326 325 324 324 324 323 323 322 322 322 321 321 320 320 320 319 318 318
119 131 168 189 121 126 184 223 123 134 177 212 281 281 254 245 203 184 201 207 186 182 186 194 199 200 200 199 197 194 194 192 189 186 186 187 188 187 188 189 191 192 193 194 194 197 201 204 207 211 213 209 197 183 170 163 149 126 80 31 10 358 352 347 344 341 339 337 336 335 333 332 332 332 331 331 331 330 329 328 327 326 325 325 324 324 323 322 322 321 321 320 319 319 318 317 316
159 177 190 186 172 130 175 251 196 110 184 181 209 274 266 245 205 181 198 206 190 190 186 188 198 201 202 202 199 197 196 194 191 189 190 191 190 189 191 193 193 194 195 195 197 202 205 209 213 215 213 206 196 185 175 173 170 134 11 355 349 344 341 340 339 338 336 334 332 331 330 329 329 328 327 328 328 327 327 326 325 325 325 324 323 323 322 321 321 320 320 319 319 318 317 316 315